Weather History for Corinth, MS

Change the Weather History Date:

Wednesday, July 10, 2013

  Actual Average Record
Temperature  
Mean Temperature 82 °F -  
Max Temperature 91 °F 93 °F 107 °F (1930)
Min Temperature 73 °F 69 °F 57 °F (1961)
Cooling Degree Days 17    
Growing Degree Days 32 (Base 50)    
Moisture  
Dew Point 74 °F    
Average Humidity 79    
Maximum Humidity 94    
Minimum Humidity 52    
Precipitation  
Precipitation 0.06 in - - ()
Sea Level Pressure  
Sea Level Pressure 30.00 in    
Wind  
Wind Speed 4 mph (SSW)    
Max Wind Speed 12 mph    
Max Gust Speed 22 mph    
Visibility 10 miles    
Events Rain , Thunderstorm    
Averages and records for this station are not official NWS values.
T = Trace of Precipitation, MM = Missing Value Source: NWS Daily Summary

Daily Weather History Graph

Daily Weather History Graph

Search for Another Location

Airport:

Trip Planner

Search our weather history database for the weather conditions in past years. The results will help you decide how hot, cold, wet, or windy it might be!

Date:

Astronomy

Jul. 10, 2013 Rise Set
Actual Time 5:49 AM CDT 8:10 PM CDT
Civil Twilight 5:19 AM CDT 8:39 PM CDT
Nautical Twilight 4:44 AM CDT 9:15 PM CDT
Astronomical Twilight 4:04 AM CDT 9:54 PM CDT
Moon 8:02 AM CDT (7/10) 9:28 PM CDT (7/10)
Length of Visible Light 15h 19m
Length of Day
14h 21m
Waxing Crescent, 5% of the Moon is Illuminated
Jul 10
Waxing Crescent
Jul 15
First Quarter
Jul 22
Full
Jul 29
Last Quarter
Aug 6
New

Hourly Weather History & Observations

Time (CDT) Temp. Heat Index Dew Point Humidity Pressure Visibility Wind Dir Wind Speed Gust Speed Precip Events Conditions
12:10 AM 77.0 °F - 73.4 °F 89% 30.06 in 10.0 mi South 4.6 mph - N/A   Clear
12:30 AM 77.0 °F - 73.4 °F 89% 30.06 in 10.0 mi SSW 3.5 mph - N/A   Clear
12:50 AM 77.0 °F - 73.4 °F 89% 30.06 in 10.0 mi South 4.6 mph - N/A   Clear
1:10 AM 77.0 °F - 73.4 °F 89% 30.05 in 10.0 mi South 3.5 mph - N/A   Clear
1:30 AM 75.2 °F - 73.4 °F 94% 30.05 in 10.0 mi Calm Calm - N/A   Clear
1:50 AM 75.2 °F - 71.6 °F 89% 30.05 in 10.0 mi South 6.9 mph - N/A   Clear
2:10 AM 75.2 °F - 73.4 °F 94% 30.05 in 10.0 mi South 5.8 mph - N/A   Clear
2:30 AM 75.2 °F - 71.6 °F 89% 30.05 in 10.0 mi SSE 4.6 mph - N/A   Clear
2:50 AM 75.2 °F - 71.6 °F 89% 30.05 in 10.0 mi Calm Calm - N/A   Clear
3:10 AM 75.2 °F - 71.6 °F 89% 30.06 in 10.0 mi Calm Calm - N/A   Clear
3:30 AM 75.2 °F - 71.6 °F 89% 30.06 in 10.0 mi Calm Calm - N/A   Clear
3:50 AM 75.2 °F - 71.6 °F 89% 30.05 in 10.0 mi SSE 4.6 mph - N/A   Clear
4:10 AM 73.4 °F - 71.6 °F 94% 30.05 in 10.0 mi Calm Calm - N/A   Clear
4:30 AM 73.4 °F - 71.6 °F 94% 30.05 in 10.0 mi Calm Calm - N/A   Clear
4:50 AM 73.4 °F - 71.6 °F 94% 30.05 in 10.0 mi SSE 3.5 mph - N/A   Clear
5:10 AM 73.4 °F - 71.6 °F 94% 30.05 in 10.0 mi SSE 4.6 mph - N/A   Clear
5:30 AM 73.4 °F - 71.6 °F 94% 30.05 in 10.0 mi SSE 3.5 mph - N/A   Clear
5:50 AM 73.4 °F - 71.6 °F 94% 30.05 in 7.0 mi Calm Calm - N/A   Clear
6:10 AM 73.4 °F - 71.6 °F 94% 30.05 in 9.0 mi SSE 3.5 mph - N/A   Clear
6:30 AM 73.4 °F - 71.6 °F 94% 30.04 in 10.0 mi Calm Calm - N/A   Clear
6:50 AM 75.2 °F - 73.4 °F 94% 30.05 in 10.0 mi Calm Calm - N/A   Clear
7:10 AM 77.0 °F - 73.4 °F 89% 30.05 in 10.0 mi SSW 4.6 mph - N/A   Scattered Clouds
7:30 AM 78.8 °F - 73.4 °F 83% 30.06 in 10.0 mi SW 4.6 mph - N/A   Scattered Clouds
7:50 AM 80.6 °F 85.4 °F 73.4 °F 79% 30.07 in 10.0 mi SW 4.6 mph - N/A   Mostly Cloudy
8:10 AM 80.6 °F 85.4 °F 73.4 °F 79% 30.07 in 10.0 mi West 3.5 mph - N/A   Overcast
8:30 AM 80.6 °F 85.4 °F 73.4 °F 79% 30.08 in 10.0 mi SW 3.5 mph - N/A   Overcast
8:50 AM 80.6 °F 85.4 °F 73.4 °F 79% 30.08 in 10.0 mi WSW 5.8 mph - N/A   Mostly Cloudy
9:10 AM 84.2 °F 90.9 °F 73.4 °F 70% 30.07 in 10.0 mi SW 5.8 mph - N/A   Mostly Cloudy
9:30 AM 84.2 °F 90.9 °F 73.4 °F 70% 30.07 in 10.0 mi WSW 8.1 mph - N/A   Mostly Cloudy
9:50 AM 82.4 °F 88.2 °F 73.4 °F 74% 30.07 in 10.0 mi West 6.9 mph - N/A Thunderstorm Overcast
10:10 AM 82.4 °F 86.3 °F 69.8 °F 66% 30.07 in 10.0 mi West 11.5 mph - N/A   Mostly Cloudy
10:30 AM 84.2 °F 89.6 °F 71.6 °F 66% 30.06 in 10.0 mi West 8.1 mph - N/A Rain Light Rain
10:50 AM 82.4 °F 87.2 °F 71.6 °F 70% 30.05 in 10.0 mi SW 9.2 mph - N/A   Partly Cloudy
11:10 AM 84.2 °F 90.9 °F 73.4 °F 70% 30.05 in 10.0 mi WSW 6.9 mph - N/A   Clear
11:30 AM 86.0 °F 91.8 °F 71.6 °F 62% 30.05 in 10.0 mi WSW 9.2 mph - N/A   Partly Cloudy
11:50 AM 86.0 °F 93.4 °F 73.4 °F 66% 30.05 in 10.0 mi SW 11.5 mph 18.4 mph N/A   Scattered Clouds
12:10 PM 86.0 °F 93.4 °F 73.4 °F 66% 30.04 in 10.0 mi West 8.1 mph - N/A   Partly Cloudy
12:30 PM 89.6 °F 98.2 °F 73.4 °F 59% 30.03 in 10.0 mi West 9.2 mph - N/A   Partly Cloudy
12:50 PM 86.0 °F 91.8 °F 71.6 °F 62% 30.02 in 10.0 mi West 6.9 mph 17.3 mph N/A   Scattered Clouds
1:10 PM 89.6 °F 96.2 °F 71.6 °F 55% 30.02 in 10.0 mi West 11.5 mph - N/A   Partly Cloudy
1:30 PM 89.6 °F 98.2 °F 73.4 °F 59% 30.01 in 10.0 mi West 10.4 mph - N/A   Partly Cloudy
1:50 PM 91.4 °F 102.5 °F 75.2 °F 59% 30.00 in 10.0 mi West 10.4 mph - N/A   Clear
2:10 PM 91.4 °F 98.4 °F 71.6 °F 52% 29.99 in 10.0 mi WNW 9.2 mph - N/A   Partly Cloudy
2:30 PM 91.4 °F 98.4 °F 71.6 °F 52% 29.98 in 10.0 mi WNW 9.2 mph - N/A   Partly Cloudy
2:50 PM 91.4 °F 100.1 °F 73.4 °F 55% 29.97 in 10.0 mi WNW 6.9 mph - N/A Thunderstorm Partly Cloudy
3:10 PM 91.4 °F 100.1 °F 73.4 °F 55% 29.95 in 10.0 mi WNW 10.4 mph - N/A Thunderstorm Clear
3:30 PM 86.0 °F 93.4 °F 73.4 °F 66% 29.96 in 10.0 mi NNW 11.5 mph 21.9 mph N/A Thunderstorm Mostly Cloudy
3:50 PM 84.2 °F 89.6 °F 71.6 °F 66% 29.93 in 3.0 mi Calm Calm - 0.05 in Rain , Thunderstorm Heavy Thunderstorms and Rain
4:10 PM 84.2 °F 90.9 °F 73.4 °F 70% 29.94 in 10.0 mi Calm Calm - 0.01 in   Partly Cloudy
4:30 PM 82.4 °F 89.5 °F 75.2 °F 79% 29.93 in 10.0 mi SSE 4.6 mph - 0.01 in   Clear
4:50 PM 82.4 °F 89.5 °F 75.2 °F 79% 29.92 in 10.0 mi ESE 5.8 mph - 0.01 in   Clear
5:10 PM 82.4 °F 89.5 °F 75.2 °F 79% 29.92 in 10.0 mi SE 4.6 mph - N/A   Clear
5:30 PM 84.2 °F 92.3 °F 75.2 °F 74% 29.91 in 10.0 mi Calm Calm - N/A   Clear
5:50 PM 84.2 °F 94.1 °F 77.0 °F 79% 29.92 in 10.0 mi Calm Calm - N/A   Clear
6:10 PM 84.2 °F 92.3 °F 75.2 °F 74% 29.91 in 10.0 mi ESE 3.5 mph - N/A   Clear
6:30 PM 84.2 °F 94.1 °F 77.0 °F 79% 29.92 in 10.0 mi Calm Calm - N/A   Partly Cloudy
6:50 PM 84.2 °F 94.1 °F 77.0 °F 79% 29.93 in 10.0 mi Calm Calm - N/A   Clear
7:10 PM 84.2 °F 96.1 °F 78.8 °F 84% 29.93 in 10.0 mi South 3.5 mph - N/A   Clear
7:30 PM 84.2 °F 96.1 °F 78.8 °F 84% 29.93 in 10.0 mi Calm Calm - N/A   Clear
7:50 PM 84.2 °F 96.1 °F 78.8 °F 84% 29.93 in 10.0 mi Calm Calm - N/A   Clear
8:10 PM 82.4 °F 92.4 °F 78.8 °F 89% 29.93 in 10.0 mi Calm Calm - N/A   Clear
8:30 PM 82.4 °F 90.9 °F 77.0 °F 84% 29.93 in 10.0 mi Calm Calm - N/A   Clear
8:50 PM 82.4 °F 90.9 °F 77.0 °F 84% 29.93 in 10.0 mi Calm Calm - N/A   Clear
9:10 PM 80.6 °F 87.1 °F 77.0 °F 89% 29.94 in 10.0 mi Calm Calm - N/A   Clear
9:30 PM 80.6 °F 87.1 °F 77.0 °F 89% 29.94 in 10.0 mi Calm Calm - N/A   Clear
9:50 PM 80.6 °F 87.1 °F 77.0 °F 89% 29.94 in 10.0 mi SSE 3.5 mph - N/A   Partly Cloudy
10:10 PM 80.6 °F 87.1 °F 77.0 °F 89% 29.94 in 10.0 mi Calm Calm - N/A   Mostly Cloudy
10:30 PM 80.6 °F 86.2 °F 75.2 °F 84% 29.94 in 10.0 mi SSE 3.5 mph - N/A Thunderstorm Overcast
10:50 PM 80.6 °F 86.2 °F 75.2 °F 84% 29.94 in 10.0 mi ESE 3.5 mph - N/A   Overcast
11:10 PM 80.6 °F 86.2 °F 75.2 °F 84% 29.95 in 10.0 mi SE 5.8 mph - N/A Thunderstorm Overcast
11:30 PM 80.6 °F 86.2 °F 75.2 °F 84% 29.95 in 10.0 mi SSE 5.8 mph - N/A   Overcast
11:50 PM 80.6 °F 85.4 °F 73.4 °F 79% 29.95 in 10.0 mi Calm Calm - N/A   Overcast